Regional Weather Roundup
Issued by NWS

Home | Current Version | Previous Version | Text Only | Print | Product List | Glossary On
Versions: 1 2 3 4 5 6 7 8 9 10 11 12 13 14 15 16 17 18 19 20 21 22 23 24 25 26 27 28 29 30 31 32 33 34 35 36 37 38 39 40 41 42 43 44 45 46 47 48 49 50
000
ASUS44 KEWX 202103
RWRTX
SOUTH TEXAS REGIONAL WEATHER ROUNDUP
NATIONAL WEATHER SERVICE AUSTIN/SAN ANTONIO TX
300 PM CST FRI JAN 20 2017

NOTE: "FAIR" INDICATED FEW OR NO CLOUDS BELOW 12,000 FEET WITH NO
SIGNIFICANT WEATHER AND/OR OBSTRUCTIONS TO VISIBILITY.

* - THESE STATIONS ARE NOT NWS OR FAA STATIONS...AND ARE NOT SUBJECT
    TO NWS AND FAA QUALITY CONTROL.

TXZ171-172-183>190-202200-
TEXAS HILL COUNTRY AND EDWARDS PLATEAU

CITY           SKY/WX    TMP DP  RH WIND       PRES   REMARKS
JUNCTION       SUNNY     75  31  19 SW13G21   29.68F
*LLANO         SUNNY     75  32  20 SW8       29.71F
BURNET         SUNNY     74  32  21 W8        29.70F
*HORSESHOE BAY SUNNY     77  33  20 W5        29.68F
*KERRVILLE     MOSUNNY   76  35  21 S6        29.70S
*FREDERICKSBRG SUNNY     75  31  19 W7        29.70S
*ROCKSPRINGS   SUNNY     72  37  28 SW5       29.74F
*BOERNE STAGE  MOSUNNY   72  46  40 S5        29.70R
*CASTROVILLE   MOSUNNY   73  50  43 SE8       29.69R
HONDO          MOSUNNY   77  49  37 VRB5      29.69R
*UVALDE        MOSUNNY   76  50  39 S7        29.70F
DEL RIO        SUNNY     76  31  19 SE9       29.66F
LAUGHLIN AFB   MOSUNNY   76  44  31 S6        29.67F
CARRIZO SPRGS  MOSUNNY   75  50  41 CALM      29.69R
*EAGLE PASS    CLEAR     77  46  33 S9        29.67F
$$

TXZ173-191>194-202-209-217>225-228-202200-
CENTRAL AND SOUTH CENTRAL TEXAS

CITY           SKY/WX    TMP DP  RH WIND       PRES   REMARKS
GEORGETOWN     SUNNY     75  37  25 NW6       29.67F
AUSTIN/BERGSTM PTSUNNY   74  49  41 SE8       29.67F
AUSTIN/MABRY   SUNNY     74  50  42 SE7       29.68F
*AUSTIN/EXEC   SUNNY     73  46  38 CALM      29.68F
*LAGO VISTA    SUNNY     76  35  22 CALM      29.69S
SAN MARCOS     SUNNY     72  52  49 S9        29.70F
NEW BRAUNFELS  MOSUNNY   75  48  38 SE9       29.68F
RANDOLPH AFB   MOSUNNY   73  54  51 E10       29.66F
PT SAN ANTONIO MOSUNNY   73  52  47 SE10      29.65F
SAN ANTONIO    PTSUNNY   72  53  51 SE15      29.67F
STINSON FIELD  MOSUNNY   75  48  38 SE13      29.65F
*PLEASANTON    MOSUNNY   72  54  53 E9        29.68F
*LA GRANGE     MOSUNNY   74  54  50 CALM      29.68F
*GIDDINGS      CLOUDY    71  53  53 CALM      29.70F
*GONZALES      PTSUNNY   71  57  61 CALM      29.69F
$$

TXZ163>164-176>182-195>201-210>213-226-227-235-202200-
SOUTHEAST TEXAS

CITY           SKY/WX    TMP DP  RH WIND       PRES   REMARKS
COLLEGE STN    MOSUNNY   70  56  61 SW7       29.70F
*BRYAN         MOSUNNY   71  55  55 SE5       29.71F
*CALDWELL      NOT AVBL
*CROCKETT      MOSUNNY   68  55  64 SW7       29.73F
*BRENHAM       PTSUNNY   74  49  40 SE3       29.70F
HUNTSVILLE     CLOUDY    71  50  47 S5        29.70F
CONROE         CLOUDY    73  54  51 NW3       29.71F
HOUSTON BUSH   CLOUDY    77  61  57 N5        29.69F
HOUSTON HOBBY  MOSUNNY   79  62  56 S12       29.68F
*HOUSTON SW AP PTSUNNY   77  65  65 CALM      29.70F
PEARLAND       PTSUNNY   79  65  62 S9        29.71F
HOUSTON HOOKS  MOSUNNY   75  62  64 CALM      29.70F
ELLINGTON FLD  PTSUNNY   81  64  57 S6        29.70F
SUGAR LAND     CLOUDY    76  65  68 S3        29.68F
*HOUSTON EXEC  MOSUNNY   73  64  73 CALM      29.72F
*CLEVELAND MUN MOSUNNY   76  58  53 CALM      29.71F
*WHARTON       PTSUNNY   71  65  81 S3        29.70F
*COLUMBUS      FAIR      70  60  70 CALM      29.69F
*EAGLE LAKE    PTCLDY    73  64  73 CALM      29.69F
$$

TXZ214>216-236>238-202200-
THE UPPER TEXAS COAST

CITY           SKY/WX    TMP DP  RH WIND       PRES   REMARKS
*ORANGE        MOSUNNY   76  64  65 S9        29.72F
PORT ARTHUR    MOSUNNY   78  65  63 S12       29.70F
GALVESTON      SUNNY     74  65  73 E6        29.72F
ANGLETON       PTSUNNY   77  67  71 S13       29.70F
*BAY CITY      CLOUDY    74  68  80 S8        29.71F
PALACIOS       CLOUDY    71  66  84 SE8       29.68F
$$

TXZ229>234-239>247-202200-
TEXAS COASTAL BEND AND RIO GRANDE PLAINS

CITY           SKY/WX    TMP DP  RH WIND       PRES   REMARKS
VICTORIA       TSTM      66  64  93 CALM      29.69S VSB 1/2
*BEEVILLE      RAIN      67  67 100 CALM      29.70F
ROCKPORT       CLOUDY    68  66  93 E7        29.67F FOG
*PORT ARANSAS  CLOUDY    67  65  94 NE9       29.67F FOG
*PORT LAVACA   CLOUDY    67  67 100 CALM      29.69F FOG
*INGLESIDE     CLOUDY    71  67  88 NE10      29.68F
CORPUS CHRISTI CLOUDY    67  66  97 N8        29.68F FOG
CORPUS NAS     CLOUDY    67  65  93 NE5       29.67F FOG
*ROBSTOWN      CLOUDY    66  66 100 N7        29.70F FOG
ALICE          CLOUDY    65  63  93 CALM      29.70S
KINGSVILLE NAS FOG       65  65 100 NW12      29.69F VSB 3/4
COTULLA        MOSUNNY   77  52  41 SE15      29.66F
*FAITH RANCH   SUNNY     75  57  53 CALM      29.70F
LAREDO         MOSUNNY   73  59  61 SE6       29.68F
$$

TXZ248>255-202200-
DEEP SOUTH TEXAS

CITY           SKY/WX    TMP DP  RH WIND       PRES   REMARKS
BROWNSVILLE    CLOUDY    82  68  62 S8        29.66F
PORT ISABEL    CLOUDY    80  69  69 S13       29.64F
*SOUTH PADRE   NOT AVBL
HARLINGEN      CLOUDY    80  70  71 NW12      29.66F
*HEBBRONVILLE  CLOUDY    66  64  91 CALM      29.71F
MCALLEN        MOSUNNY   79  66  64 NW8       29.68F
*WESLACO       CLOUDY    76  68  76 NW7       29.67F
FALFURRIAS     CLOUDY    67  65  94 N6        29.69F
EDINBURG       CLOUDY    77  67  71 W7        29.68F
*ZAPATA        CLOUDY    72  58  62 CALM      29.68F
$$

TXZ213>215-236>238-242>244-246-247-251-254-255-202200-
CMAN STATIONS

STATION/POSITION TIME  TEMP    WIND        PRES    WAVE
                       AIR SEA DIR/SP/G            HT/PER
                 (UTC) (F)     (DEG/KT/KT) (MB)    (FT/S)
SABINE PASS      2030   65 68  140/ 10/ 11 1007.8
SEA RIM ST PARK  2000   67     150/  8/ 10 1007.1
NORTH JETTY/GLS  2030   70 63  100/  7/  7   N/A
EAGLE POINT      2030   69 69  150/ 12/ 13 1005.9
MORGANS POINT    2030   73 65  140/  7/ 11 1006.0
PORT O`CONNOR    2030   65      70/  6/  7 1005.3
PORT ARANSAS     2000   64 65   30/  8/  9 1005.5
MALAQUITE BEACH  2030   65 65   20/  9/ 10 1005.7
BAFFIN BAY       2030   69 69   60/  7/  7 1004.9
PORT ISABEL      2030   77 69  150/  8/ 12 1004.2
$$

GMZ080-GMZ150>470-202200-
OFFSHORE BUOY REPORTS

STATION/POSITION TIME  TEMP    WIND        PRES    WAVE
                       AIR SEA DIR/SP/G            HT/PER
                 (UTC) (F)     (DEG/KT/KT) (MB)    (FT/S)
20 E GALVESTON   1950   67 68  100/ 10/ 10 1006.5    2/ 7
90 E PT ARANSAS  1950   74 74  120/ 12/ 14 1006.0    3/ 6
35 NE PT MANSFLD 1950   72     140/  8/ 10 1004.8    3/ 6
200 E PT ISABEL  1950   76 75  120/ 10/ 12 1007.0    3/ 6
$$



USA.gov is the U.S. government's official web portal to all federal, state and local government web resources and services.